Date String (YYYY-MM-DD hh:mm:ss) UTC,Instrument flags,Ambient pressure (hPa),Sample flow (lpm),Bypass flow (lpm),Sample temperature (°C),Ambient temperature (°C),ASC tube jacket temperature (°C),LED temperature (°C),Box temperature (°C),Sample RH (%),Span deviation,Mass concentration (μg/m³),Mass concentration (μg/m³),Mass concentration (μg/m³)
DateTimeUTC,F1_M11,P_M11,Q1_M11,Q2_M11,T1_M11,T2_M11,T3_M11,T4_M11,T5_M11,U1_M11,ZSPAN_M11,X0_M11,X2_M11,X1_M11
2022-11-09 11:00:00,,0820.1,5.01,0.00,25.6,23.9,00.0,34.5,27.5,15.2,0000.1,0018.42,0007.51,0006.02
2022-11-09 11:01:00,,0820.1,4.99,0.00,25.6,23.8,00.0,34.5,27.5,15.2,-000.2,0017.85,0007.50,0006.04
2022-11-09 11:02:00,,0820.2,4.99,0.00,25.6,23.8,00.0,34.5,27.4,15.2,-000.1,0017.90,0007.51,0006.07
2022-11-09 11:03:00,,0820.2,4.99,0.00,25.6,23.7,00.0,34.5,27.4,15.1,0000.1,0017.90,0007.51,0006.08
2022-11-09 11:04:00,,0820.0,5.01,0.00,25.5,23.7,00.0,34.5,27.4,15.0,-000.6,0016.38,0007.47,0006.07
2022-11-09 11:05:00,,0819.9,5.01,0.00,25.5,23.8,00.0,34.5,27.4,15.0,-001.1,0015.48,0007.44,0006.05
2022-11-09 11:06:00,,0820.0,5.00,0.00,25.5,23.8,00.0,34.4,27.4,15.0,-001.2,0015.30,0007.46,0006.03
2022-11-09 11:07:00,,0819.9,5.00,0.00,25.5,23.9,00.0,34.4,27.4,15.0,-000.8,0015.11,0007.44,0006.02
2022-11-09 11:08:00,,0820.0,4.99,0.00,25.5,23.9,00.0,34.4,27.4,15.0,-000.5,0015.59,0007.42,0006.03
2022-11-09 11:09:00,,0820.0,4.99,0.00,25.5,23.9,00.0,34.4,27.4,15.0,-000.2,0015.27,0007.37,0006.03
2022-11-09 11:10:00,,0820.0,5.01,0.00,25.5,23.9,00.0,34.4,27.4,15.0,-000.1,0015.87,0007.37,0006.01
2022-11-09 11:11:00,,0820.1,5.01,0.00,25.5,23.8,00.0,34.4,27.4,15.0,-000.3,0016.23,0007.35,0006.00
2022-11-09 11:12:00,,0820.0,4.99,0.00,25.5,23.8,00.0,34.3,27.4,15.0,-000.6,0016.61,0007.35,0005.99
2022-11-09 11:13:00,,0820.0,5.00,0.00,25.5,23.8,00.0,34.3,27.4,15.0,-000.4,0016.17,0007.34,0005.97
2022-11-09 11:14:00,,0819.9,4.99,0.00,25.5,23.8,00.0,34.3,27.4,15.0,-000.6,0016.45,0007.32,0005.98
2022-11-09 11:15:00,,0819.9,5.01,0.00,25.5,23.8,00.0,34.3,27.4,15.0,-001.0,0016.63,0007.35,0006.00
2022-11-09 11:16:00,,0819.9,5.01,0.00,25.5,23.8,00.0,34.3,27.4,15.0,-000.8,0017.09,0007.43,0006.02
2022-11-09 11:17:00,,0820.0,5.00,0.00,25.5,23.8,00.0,34.3,27.4,14.9,-001.3,0017.01,0007.41,0006.02
2022-11-09 11:18:00,,0820.2,5.00,0.00,25.5,23.8,00.0,34.3,27.4,14.9,-001.7,0016.73,0007.44,0006.02
2022-11-09 11:19:00,,0820.2,5.00,0.00,25.5,23.8,00.0,34.3,27.4,14.9,-001.7,0016.24,0007.44,0005.99
2022-11-09 11:20:00,,0820.2,5.00,0.00,25.5,23.8,00.0,34.3,27.4,14.9,-001.7,0015.85,0007.40,0005.97
2022-11-09 11:21:00,,0820.0,4.99,0.00,25.5,23.8,00.0,34.3,27.3,14.9,-002.0,0015.15,0007.33,0005.92
2022-11-09 11:22:00,,0819.9,4.99,0.00,25.5,23.8,00.0,34.3,27.3,14.9,-001.7,0014.98,0007.27,0005.89
2022-11-09 11:23:00,,0819.9,4.99,0.00,25.4,23.7,00.0,34.3,27.3,14.9,-001.4,0014.49,0007.21,0005.85
2022-11-09 11:24:00,,0820.0,5.00,0.00,25.4,23.7,00.0,34.3,27.3,14.9,-001.8,0014.67,0007.15,0005.80
2022-11-09 11:25:00,,0819.9,5.00,0.00,25.4,23.7,00.0,34.2,27.3,14.9,-001.9,0014.33,0007.08,0005.74
2022-11-09 11:26:00,,0820.0,5.00,0.00,25.4,23.7,00.0,34.2,27.3,14.9,-001.4,0014.61,0007.01,0005.68
2022-11-09 11:27:00,,0820.0,5.00,0.00,25.4,23.7,00.0,34.2,27.3,14.9,-001.6,0013.97,0006.88,0005.61
2022-11-09 11:28:00,,0819.9,5.00,0.00,25.4,23.7,00.0,34.2,27.2,14.9,-001.6,0013.76,0006.77,0005.55
2022-11-09 11:29:00,,0819.9,5.00,0.00,25.4,23.6,00.0,34.2,27.2,14.8,-001.6,0013.62,0006.70,0005.49
2022-11-09 11:30:00,,0819.9,5.00,0.00,25.4,23.6,00.0,34.2,27.2,14.8,-001.7,0013.10,0006.61,0005.44
2022-11-09 11:31:00,,0820.0,5.00,0.00,25.4,23.6,00.0,34.2,27.2,14.8,-001.7,0013.16,0006.59,0005.41
2022-11-09 11:32:00,,0820.0,5.00,0.00,25.4,23.7,00.0,34.2,27.2,14.8,-001.5,0013.22,0006.55,0005.40
2022-11-09 11:33:00,,0819.9,5.00,0.00,25.4,23.7,00.0,34.2,27.2,14.8,-001.5,0014.34,0006.54,0005.38
2022-11-09 11:34:00,,0820.0,5.00,0.00,25.4,23.7,00.0,34.2,27.2,14.8,-001.1,0014.39,0006.56,0005.38
2022-11-09 11:35:00,,0819.9,5.01,0.00,25.4,23.7,00.0,34.1,27.2,14.8,-000.6,0014.16,0006.60,0005.40
2022-11-09 11:36:00,,0820.0,5.00,0.00,25.4,23.7,00.0,34.1,27.2,14.8,-000.7,0015.07,0006.61,0005.39
2022-11-09 11:37:00,,0820.0,4.98,0.00,25.4,23.7,00.0,34.1,27.3,14.7,-000.6,0015.27,0006.61,0005.38
2022-11-09 11:38:00,,0819.9,5.00,0.00,25.3,23.6,00.0,34.1,27.2,14.7,-000.1,0016.03,0006.67,0005.38
2022-11-09 11:39:00,,0819.9,5.00,0.00,25.3,23.6,00.0,34.1,27.2,14.6,0000.6,0016.61,0006.73,0005.38
2022-11-09 11:40:00,,0819.9,5.01,0.00,25.3,23.6,00.0,34.1,27.2,14.6,0001.0,0017.07,0006.73,0005.38
2022-11-09 11:41:00,,0819.9,5.00,0.00,25.3,23.6,00.0,34.1,27.2,14.6,0001.4,0017.54,0006.69,0005.37
2022-11-09 11:42:00,,0819.9,4.99,0.00,25.3,23.6,00.0,34.1,27.1,14.6,0001.2,0018.69,0006.74,0005.35
2022-11-09 11:43:00,,0819.9,5.00,0.00,25.3,23.6,00.0,34.1,27.1,14.6,0001.1,0018.69,0006.76,0005.32
2022-11-09 11:44:00,,0819.8,5.00,0.00,25.3,23.5,00.0,34.1,27.1,14.6,0000.8,0017.47,0006.76,0005.29
2022-11-09 11:45:00,,0819.9,5.01,0.00,25.3,23.5,00.0,34.1,27.1,14.6,0000.5,0017.80,0006.79,0005.28
2022-11-09 11:46:00,,0819.8,5.01,0.00,25.2,23.5,00.0,34.1,27.1,14.6,-000.1,0018.16,0006.77,0005.25
2022-11-09 11:47:00,,0819.9,4.99,0.00,25.2,23.4,00.0,34.1,27.1,14.5,0000.6,0017.68,0006.78,0005.25
2022-11-09 11:48:00,,0819.9,4.99,0.00,25.2,23.4,00.0,34.0,27.0,14.5,0000.7,0017.15,0006.78,0005.23
2022-11-09 11:49:00,,0819.9,4.99,0.00,25.2,23.3,00.0,34.0,27.0,14.5,-000.4,0017.18,0006.72,0005.21
2022-11-09 11:50:00,,0819.9,5.01,0.00,25.2,23.3,00.0,34.0,27.0,14.4,-000.2,0016.78,0006.68,0005.19
2022-11-09 11:51:00,,0819.9,5.01,0.00,25.1,23.4,00.0,34.0,27.0,14.4,-000.8,0016.58,0006.65,0005.15
2022-11-09 11:52:00,,0819.9,4.99,0.00,25.1,23.4,00.0,34.0,27.0,14.4,-001.8,0016.05,0006.67,0005.13
2022-11-09 11:53:00,,0819.9,4.99,0.00,25.1,23.4,00.0,34.0,27.0,14.3,-001.8,0015.21,0006.65,0005.11
2022-11-09 11:54:00,,0819.9,5.01,0.00,25.1,23.5,00.0,34.0,27.0,14.3,-001.1,0015.05,0006.61,0005.10
2022-11-09 11:55:00,,0819.9,5.00,0.00,25.1,23.4,00.0,33.9,27.0,14.2,-000.4,0015.72,0006.54,0005.10
2022-11-09 11:56:00,,0820.0,5.00,0.00,25.1,23.4,00.0,33.9,27.0,14.2,0000.1,0015.20,0006.47,0005.10
2022-11-09 11:57:00,,0820.0,5.00,0.00,25.1,23.3,00.0,33.9,26.9,14.2,0000.1,0014.75,0006.46,0005.10
2022-11-09 11:58:00,,0820.0,5.00,0.00,25.1,23.3,00.0,33.9,26.9,14.2,0000.0,0013.91,0006.44,0005.10
2022-11-09 11:59:00,,0819.9,5.00,0.00,25.1,23.3,00.0,33.9,26.9,14.2,0000.0,0014.15,0006.44,0005.10
